Hourly Data Report for August 24, 2021

ALGONQUIN PARK EAST GATE
ONTARIO
Current Station Operator: ECCC - MSC

45°32'00.000" N
78°16'00.000" W
397.00 m
6080192
71581
TNK

Download Data

Hourly Data (August 2021)
Hourly Data Report for August 24, 2021
TIME
LST
Temp Definition
°C
Dew Point Definition
°C
Rel Hum Definition
%
Precip. Amount Definition
mm

Wind Dir Definition
10's deg

Wind Spd Definition
km/h
Visibility Definition
km
Stn Press Definition
kPa
Hmdx Definition


Wind Chill Definition


Weather Definition


00:00 15.3 14.8 96 0.0   0   96.63     LegendNANA
01:00 14.6 14.2 97 0.0   0   96.63     LegendNANA
02:00 14.3 13.9 98 0.0   0   96.65     LegendNANA
03:00 13.8 13.5 98 0.0   0   96.66     LegendNANA
04:00 13.1 12.8 98 0.0   0   96.68     LegendNANA
05:00 12.4 12.0 98 0.0   0   96.72     LegendNANA
06:00 11.9 11.7 98 0.0   0   96.76     LegendNANA
07:00 14.0 13.7 98 0.0   0   96.79     LegendNANA
08:00 19.2 17.4 89 0.0 0 1   96.81     LegendNANA
09:00 22.7 15.8 65 0.0 27 2   96.82 27   LegendNANA
10:00 24.9 15.6 56 0.0 24 4   96.83 29   LegendNANA
11:00 25.7 15.7 54 0.0 23 5   96.82 30   LegendNANA
12:00 27.6 16.2 50 0.0 24 6   96.83 32   LegendNANA
13:00 28.2 14.2 42 0.0 26 5   96.85 32   LegendNANA
14:00 29.0 14.5 41 0.0 26 7   96.85 33   LegendNANA
15:00 29.0 16.1 46 0.0 28 5   96.83 34   LegendNANA
16:00 28.4 17.1 50 0.0 24 5   96.80 34   LegendNANA
17:00 27.5 17.4 54 0.0 26 5   96.81 33   LegendNANA
18:00 26.1 18.3 62 0.0 26 3   96.84 32   LegendNANA
19:00 22.6 18.6 78 0.0   0   96.88 29   LegendNANA
20:00 20.2 17.7 86 0.0   0   96.95 26   LegendNANA
21:00 19.1 18.1 94 0.0 10 1   96.98     LegendNANA
22:00 17.8 16.9 94 0.0   0   96.95     LegendNANA
23:00 16.9 16.2 96 0.0   0   96.98     LegendNANA

Notes on Data Quality.

Legend

  • E = Estimated
  • M = Missing
  • NA = Not Available*
  • [empty] = Indicates an unobserved value
Date modified: